Tracking 20241 objects as of 25-Jan-2020
HD Live streaming from Space Station
objects crossing your sky now

FENGYUN 1C DEB

Track FENGYUN 1C DEB now!
10-day predictions


NORAD ID: 31353
Int'l Code: 1999-025BRH
Perigee: 643.4 km
Apogee: 1,000.1 km
Inclination: 99.1 °
Period: 101.2 minutes
Semi major axis: 7192 km
RCS: 0.0153 m2 (small)
Launch date: May 10, 1999
Source: People's Republic of China (PRC)
Launch site: Taiyaun Space Center, China (TSC)

Note: This is SATELLITE DEBRIS
aabbcc
Your satellite tracking list
Your tracking list is empty




NASA's NSSDC Master Catalog

Two Line Element Set (TLE):
1 31353U 99025BRH 20024.31597562 +.00000088 +00000-0 +45318-4 0  9997
2 31353 099.1499 210.8645 0247915 133.9144 228.2793 14.23178475659697
Source of the keplerian elements: AFSPC